This is the latest recevied weather packets stored in our database for station/object W4KAB. If no packets are shown the sender has not sent any weather packets the latest 10 day(s).
| Time | Temp. | Humidity | Pressure | Rain* | Wind** | Luminosity | Snow |
|---|---|---|---|---|---|---|---|
| 1777849474 | 18.89° C | 33% | 1016.6 hPa | 0 mm | - | 34 W/m² | - |
| 1777849172 | 18.89° C | 34% | 1016.4 hPa | 0 mm | - | 21 W/m² | - |
| 1777848868 | 18.89° C | 39% | 1016.4 hPa | 0 mm | - | 27 W/m² | - |
| 1777848564 | 18.89° C | 40% | 1016.7 hPa | 0 mm | - | 58 W/m² | - |
| 1777848261 | 18.89° C | 33% | 1016.8 hPa | 0 mm | - | 22 W/m² | - |
| 1777847959 | 19.44° C | 33% | 1016.6 hPa | 0 mm | - | 23 W/m² | - |
| 1777847657 | 19.44° C | 39% | 1016.7 hPa | 0 mm | - | 47 W/m² | - |
| 1777847357 | 19.44° C | 38% | 1016.7 hPa | 0 mm | - | 50 W/m² | - |
| 1777847056 | 19.44° C | 31% | 1016.7 hPa | 0 mm | - | 42 W/m² | - |
| 1777846754 | 20° C | 32% | 1016.8 hPa | 0 mm | - | 28 W/m² | - |
| 1777846452 | 20° C | 32% | 1017 hPa | 0 mm | - | 50 W/m² | - |
| 1777846148 | 20° C | 36% | 1016.6 hPa | 0 mm | - | 46 W/m² | - |
| 1777845844 | 20° C | 31% | 1016.9 hPa | 0 mm | - | 184 W/m² | - |
| 1777845541 | 20° C | 32% | 1016.3 hPa | 0 mm | - | 67 W/m² | - |
| 1777845239 | 20° C | 32% | 1016.8 hPa | 0 mm | - | 167 W/m² | - |
| 1777844936 | 20° C | 31% | 1017 hPa | 0 mm | - | 188 W/m² | - |
| 1777844633 | 20° C | 31% | 1016.9 hPa | 0 mm | - | 53 W/m² | - |
| 1777844331 | 20° C | 32% | 1017.1 hPa | 0 mm | - | 56 W/m² | - |
| 1777844028 | 20.56° C | 29% | 1017.2 hPa | 0 mm | - | 294 W/m² | - |
| 1777843725 | 20.56° C | 29% | 1017.3 hPa | 0 mm | - | 73 W/m² | - |
| 1777843423 | 20.56° C | 30% | 1017.3 hPa | 0 mm | - | 140 W/m² | - |
| 1777843119 | 20.56° C | 26% | 1017.4 hPa | 0 mm | - | 356 W/m² | - |
| 1777842816 | 20.56° C | 28% | 1017.3 hPa | 0 mm | - | 393 W/m² | - |
| 1777842511 | 20° C | 31% | 1017.5 hPa | 0 mm | - | 376 W/m² | - |
| 1777842209 | 20.56° C | 29% | 1017.4 hPa | 0 mm | - | 55 W/m² | - |
* Rain latest hour (hover to see other rain measurements)
** Current wind speed in m/s (hover to see current wind gust speed)